Time,TemperatureF,DewpointF,PressureIn,WindDirection,WindDirectionDegrees,WindSpeedMPH,WindSpeedGustMPH,Humidity,HourlyPrecipIn,Conditions,Clouds,dailyrainin,SoftwareType,DateUTC
2013-03-27 00:02:00,31.0,23.0,30.24,WNW,284,2.0,5.0,72,0.00,,,0.00,,2013-03-27 05:02:00,
2013-03-27 00:12:00,31.0,23.0,30.24,WNW,284,2.0,5.0,72,0.00,,,0.00,,2013-03-27 05:12:00,
2013-03-27 00:23:00,30.0,23.0,30.24,West,260,2.0,4.0,74,0.00,,,0.00,,2013-03-27 05:23:00,
2013-03-27 00:33:00,31.0,21.0,30.24,WNW,291,4.0,6.0,67,0.00,,,0.00,,2013-03-27 05:33:00,
2013-03-27 00:42:00,31.0,21.0,30.24,WNW,291,4.0,6.0,67,0.00,,,0.00,,2013-03-27 05:42:00,
2013-03-27 00:52:00,31.0,21.0,30.25,WNW,290,4.0,7.0,65,0.00,,,0.00,,2013-03-27 05:52:00,
2013-03-27 01:02:00,31.0,21.0,30.25,WNW,300,5.0,7.0,65,0.00,,,0.00,,2013-03-27 06:02:00,
2013-03-27 01:12:00,31.0,21.0,30.25,WNW,300,5.0,7.0,65,0.00,,,0.00,,2013-03-27 06:12:00,
2013-03-27 01:22:00,31.0,20.0,30.25,WNW,300,5.0,7.0,64,0.00,,,0.00,,2013-03-27 06:22:00,
2013-03-27 01:32:00,31.0,20.0,30.25,WNW,303,5.0,7.0,63,0.00,,,0.00,,2013-03-27 06:32:00,
2013-03-27 01:42:00,31.0,20.0,30.25,WNW,303,5.0,7.0,63,0.00,,,0.00,,2013-03-27 06:42:00,
2013-03-27 01:52:00,31.0,20.0,30.25,WNW,299,5.0,6.0,64,0.00,,,0.00,,2013-03-27 06:52:00,
2013-03-27 02:02:00,31.0,20.0,30.26,NW,311,4.0,6.0,64,0.00,,,0.00,,2013-03-27 07:02:00,
2013-03-27 02:12:00,31.0,20.0,30.26,NW,311,4.0,6.0,64,0.00,,,0.00,,2013-03-27 07:12:00,
2013-03-27 02:22:00,31.0,21.0,30.26,NW,310,4.0,6.0,65,0.00,,,0.00,,2013-03-27 07:22:00,
2013-03-27 02:32:00,31.0,21.0,30.26,WNW,300,3.0,7.0,65,0.00,,,0.00,,2013-03-27 07:32:00,
2013-03-27 02:42:00,31.0,21.0,30.26,WNW,300,3.0,7.0,65,0.00,,,0.00,,2013-03-27 07:42:00,
2013-03-27 02:53:00,31.0,21.0,30.26,NW,309,2.0,3.0,65,0.00,,,0.00,,2013-03-27 07:53:00,
2013-03-27 03:02:00,31.0,21.0,30.26,WNW,294,3.0,4.0,66,0.00,,,0.00,,2013-03-27 08:02:00,
2013-03-27 03:12:00,31.0,21.0,30.26,WNW,294,3.0,4.0,66,0.00,,,0.00,,2013-03-27 08:12:00,
2013-03-27 03:22:00,31.0,21.0,30.26,WNW,294,3.0,4.0,66,0.00,,,0.00,,2013-03-27 08:22:00,
2013-03-27 03:32:00,30.0,21.0,30.25,WNW,290,4.0,7.0,68,0.00,,,0.00,,2013-03-27 08:32:00,
2013-03-27 03:43:00,30.0,21.0,30.25,WNW,290,4.0,7.0,68,0.00,,,0.00,,2013-03-27 08:43:00,
2013-03-27 03:52:00,30.0,21.0,30.25,NW,306,5.0,7.0,69,0.00,,,0.00,,2013-03-27 08:52:00,
2013-03-27 04:02:00,30.0,21.0,30.25,NW,309,5.0,7.0,69,0.00,,,0.00,,2013-03-27 09:02:00,
2013-03-27 04:12:00,30.0,21.0,30.25,NW,309,5.0,7.0,69,0.00,,,0.00,,2013-03-27 09:12:00,
2013-03-27 04:22:00,30.0,21.0,30.25,NW,307,5.0,7.0,69,0.00,,,0.00,,2013-03-27 09:22:00,
2013-03-27 04:32:00,30.0,21.0,30.25,NW,307,5.0,7.0,69,0.00,,,0.00,,2013-03-27 09:32:00,
2013-03-27 04:42:00,30.0,21.0,30.25,NW,307,5.0,7.0,69,0.00,,,0.00,,2013-03-27 09:42:00,
2013-03-27 04:52:00,30.0,21.0,30.25,NW,307,5.0,7.0,69,0.00,,,0.00,,2013-03-27 09:52:00,
2013-03-27 05:02:00,30.0,21.0,30.25,NW,309,5.0,8.0,70,0.00,,,0.00,,2013-03-27 10:02:00,
2013-03-27 05:12:00,30.0,21.0,30.25,NW,309,5.0,8.0,70,0.00,,,0.00,,2013-03-27 10:12:00,
2013-03-27 05:22:00,30.0,21.0,30.25,NW,314,4.0,7.0,70,0.00,,,0.00,,2013-03-27 10:22:00,
2013-03-27 05:32:00,30.0,21.0,30.25,NW,314,4.0,7.0,70,0.00,,,0.00,,2013-03-27 10:32:00,
2013-03-27 05:42:00,30.0,21.0,30.25,NW,314,4.0,7.0,70,0.00,,,0.00,,2013-03-27 10:42:00,
2013-03-27 05:52:00,29.0,21.0,30.25,NW,310,3.0,6.0,71,0.00,,,0.00,,2013-03-27 10:52:00,
2013-03-27 06:02:00,29.0,21.0,30.26,NW,321,3.0,5.0,71,0.00,,,0.00,,2013-03-27 11:02:00,
2013-03-27 06:12:00,29.0,21.0,30.26,NW,321,3.0,5.0,71,0.00,,,0.00,,2013-03-27 11:12:00,
2013-03-27 06:22:00,29.0,20.0,30.26,WNW,303,5.0,7.0,70,0.00,,,0.00,,2013-03-27 11:22:00,
2013-03-27 06:32:00,29.0,20.0,30.26,NW,317,5.0,6.0,70,0.00,,,0.00,,2013-03-27 11:32:00,
2013-03-27 06:42:00,29.0,20.0,30.26,NW,317,5.0,6.0,70,0.00,,,0.00,,2013-03-27 11:42:00,
2013-03-27 06:52:00,29.0,20.0,30.26,NW,320,3.0,7.0,69,0.00,,,0.00,,2013-03-27 11:52:00,
2013-03-27 07:02:00,29.0,19.0,30.27,NW,322,3.0,7.0,67,0.00,,,0.00,,2013-03-27 12:02:00,
2013-03-27 07:12:00,29.0,19.0,30.27,NW,322,3.0,7.0,67,0.00,,,0.00,,2013-03-27 12:12:00,
2013-03-27 07:22:00,30.0,20.0,30.27,NW,317,3.0,5.0,67,0.00,,,0.00,,2013-03-27 12:22:00,
2013-03-27 07:32:00,30.0,20.0,30.27,WNW,303,2.0,3.0,67,0.00,,,0.00,,2013-03-27 12:32:00,
2013-03-27 07:43:00,30.0,20.0,30.27,WNW,303,2.0,3.0,67,0.00,,,0.00,,2013-03-27 12:43:00,
2013-03-27 07:52:00,30.0,20.0,30.28,NNW,333,3.0,5.0,66,0.00,,,0.00,,2013-03-27 12:52:00,
2013-03-27 08:02:00,30.0,20.0,30.28,NNW,329,2.0,4.0,66,0.00,,,0.00,,2013-03-27 13:02:00,
2013-03-27 08:12:00,30.0,20.0,30.28,NNW,329,2.0,4.0,66,0.00,,,0.00,,2013-03-27 13:12:00,
2013-03-27 08:22:00,30.0,19.0,30.28,North,349,2.0,4.0,63,0.00,,,0.00,,2013-03-27 13:22:00,
2013-03-27 08:32:00,31.0,21.0,30.29,ENE,66,0.0,4.0,65,0.00,,,0.00,,2013-03-27 13:32:00,
2013-03-27 08:42:00,31.0,21.0,30.29,ENE,66,0.0,4.0,65,0.00,,,0.00,,2013-03-27 13:42:00,
2013-03-27 08:52:00,32.0,21.0,30.29,NW,321,3.0,4.0,63,0.00,,,0.00,,2013-03-27 13:52:00,
2013-03-27 09:02:00,33.0,21.0,30.29,ENE,65,1.0,4.0,60,0.00,,,0.00,,2013-03-27 14:02:00,
2013-03-27 09:12:00,33.0,21.0,30.29,ENE,65,1.0,4.0,60,0.00,,,0.00,,2013-03-27 14:12:00,
2013-03-27 09:22:00,33.0,20.0,30.29,NNW,327,2.0,3.0,58,0.00,,,0.00,,2013-03-27 14:22:00,
2013-03-27 09:32:00,34.0,19.0,30.29,NW,315,3.0,5.0,54,0.00,,,0.00,,2013-03-27 14:32:00,
2013-03-27 09:42:00,34.0,19.0,30.29,NW,315,3.0,5.0,54,0.00,,,0.00,,2013-03-27 14:42:00,
2013-03-27 09:52:00,35.0,19.0,30.29,NNW,344,0.0,5.0,52,0.00,,,0.00,,2013-03-27 14:52:00,
2013-03-27 10:02:00,36.0,18.0,30.29,NNE,27,2.0,5.0,48,0.00,,,0.00,,2013-03-27 15:02:00,
2013-03-27 10:12:00,36.0,18.0,30.29,NNE,27,2.0,5.0,48,0.00,,,0.00,,2013-03-27 15:12:00,
2013-03-27 10:22:00,36.0,17.0,30.29,NW,324,5.0,9.0,45,0.00,,,0.00,,2013-03-27 15:22:00,
2013-03-27 10:33:00,37.0,17.0,30.29,North,9,3.0,8.0,44,0.00,,,0.00,,2013-03-27 15:33:00,
2013-03-27 10:42:00,37.0,17.0,30.29,North,9,3.0,8.0,44,0.00,,,0.00,,2013-03-27 15:42:00,
2013-03-27 10:52:00,37.0,16.0,30.29,North,349,4.0,8.0,42,0.00,,,0.00,,2013-03-27 15:52:00,
2013-03-27 11:02:00,39.0,17.0,30.29,ENE,59,1.0,5.0,41,0.00,,,0.00,,2013-03-27 16:02:00,
2013-03-27 11:13:00,39.0,17.0,30.29,ENE,59,1.0,5.0,41,0.00,,,0.00,,2013-03-27 16:13:00,
2013-03-27 11:22:00,40.0,16.0,30.29,NNE,28,5.0,9.0,38,0.00,,,0.00,,2013-03-27 16:22:00,
2013-03-27 11:32:00,38.0,16.0,30.29,NNE,17,4.0,9.0,40,0.00,,,0.00,,2013-03-27 16:32:00,
2013-03-27 11:42:00,38.0,16.0,30.29,NNE,17,4.0,9.0,40,0.00,,,0.00,,2013-03-27 16:42:00,
2013-03-27 11:52:00,38.0,16.0,30.29,NE,46,5.0,9.0,40,0.00,,,0.00,,2013-03-27 16:52:00,
2013-03-27 12:12:00,40.0,17.0,30.29,ENE,60,3.0,7.0,39,0.00,,,0.00,,2013-03-27 17:12:00,
2013-03-27 12:22:00,40.0,18.0,30.29,ENE,61,2.0,8.0,40,0.00,,,0.00,,2013-03-27 17:22:00,
2013-03-27 12:32:00,40.0,18.0,30.29,ENE,61,2.0,8.0,40,0.00,,,0.00,,2013-03-27 17:32:00,
2013-03-27 12:44:00,40.0,18.0,30.29,ENE,61,2.0,8.0,40,0.00,,,0.00,,2013-03-27 17:44:00,
2013-03-27 12:52:00,41.0,19.0,30.29,ENE,59,4.0,8.0,40,0.00,,,0.00,,2013-03-27 17:52:00,
2013-03-27 13:02:00,41.0,19.0,30.29,ENE,59,4.0,8.0,40,0.00,,,0.00,,2013-03-27 18:02:00,
2013-03-27 13:12:00,41.0,19.0,30.29,ENE,59,4.0,8.0,40,0.00,,,0.00,,2013-03-27 18:12:00,
2013-03-27 13:22:00,42.0,16.0,30.29,East,90,1.0,8.0,35,0.00,,,0.00,,2013-03-27 18:22:00,
2013-03-27 13:32:00,40.0,15.0,30.29,NE,51,0.0,7.0,35,0.00,,,0.00,,2013-03-27 18:32:00,
2013-03-27 13:42:00,40.0,15.0,30.29,NE,51,0.0,7.0,35,0.00,,,0.00,,2013-03-27 18:42:00,
2013-03-27 13:52:00,42.0,16.0,30.29,WNW,283,0.0,6.0,35,0.00,,,0.00,,2013-03-27 18:52:00,
2013-03-27 14:02:00,43.0,16.0,30.29,NNW,343,1.0,4.0,33,0.00,,,0.00,,2013-03-27 19:02:00,
2013-03-27 14:12:00,43.0,16.0,30.29,NNW,343,1.0,4.0,33,0.00,,,0.00,,2013-03-27 19:12:00,
2013-03-27 14:22:00,42.0,16.0,30.28,East,97,1.0,5.0,35,0.00,,,0.00,,2013-03-27 19:22:00,
2013-03-27 14:32:00,43.0,17.0,30.28,NW,313,2.0,7.0,35,0.00,,,0.00,,2013-03-27 19:32:00,
2013-03-27 14:42:00,43.0,17.0,30.28,NW,313,2.0,7.0,35,0.00,,,0.00,,2013-03-27 19:42:00,
2013-03-27 14:52:00,40.0,18.0,30.27,West,263,6.0,9.0,40,0.00,,,0.00,,2013-03-27 19:52:00,
2013-03-27 15:02:00,40.0,18.0,30.27,South,184,1.0,10.0,40,0.00,,,0.00,,2013-03-27 20:02:00,
2013-03-27 15:12:00,40.0,18.0,30.27,South,184,1.0,10.0,40,0.00,,,0.00,,2013-03-27 20:12:00,
2013-03-27 15:22:00,42.0,18.0,30.27,West,278,3.0,5.0,37,0.00,,,0.00,,2013-03-27 20:22:00,
2013-03-27 15:32:00,42.0,18.0,30.27,ESE,110,5.0,8.0,38,0.00,,,0.00,,2013-03-27 20:32:00,
2013-03-27 15:42:00,42.0,18.0,30.27,ESE,110,5.0,8.0,38,0.00,,,0.00,,2013-03-27 20:42:00,
2013-03-27 15:52:00,43.0,19.0,30.27,ESE,107,4.0,8.0,37,0.00,,,0.00,,2013-03-27 20:52:00,
2013-03-27 16:02:00,43.0,19.0,30.27,NE,54,5.0,8.0,37,0.00,,,0.00,,2013-03-27 21:02:00,
2013-03-27 16:12:00,43.0,19.0,30.27,NE,54,5.0,8.0,37,0.00,,,0.00,,2013-03-27 21:12:00,
2013-03-27 16:22:00,43.0,19.0,30.27,ENE,78,3.0,6.0,37,0.00,,,0.00,,2013-03-27 21:22:00,
2013-03-27 16:32:00,44.0,19.0,30.26,ENE,73,4.0,9.0,37,0.00,,,0.00,,2013-03-27 21:32:00,
2013-03-27 16:43:00,44.0,19.0,30.26,ENE,73,4.0,9.0,37,0.00,,,0.00,,2013-03-27 21:43:00,
2013-03-27 16:52:00,41.0,19.0,30.26,North,9,5.0,10.0,40,0.00,,,0.00,,2013-03-27 21:52:00,
2013-03-27 17:03:00,41.0,19.0,30.26,NNE,20,6.0,10.0,40,0.00,,,0.00,,2013-03-27 22:03:00,
2013-03-27 17:12:00,41.0,19.0,30.26,NNE,20,6.0,10.0,40,0.00,,,0.00,,2013-03-27 22:12:00,
2013-03-27 17:23:00,40.0,19.0,30.26,North,349,6.0,10.0,42,0.00,,,0.00,,2013-03-27 22:23:00,
2013-03-27 17:33:00,40.0,18.0,30.26,NE,34,5.0,8.0,41,0.00,,,0.00,,2013-03-27 22:33:00,
2013-03-27 17:42:00,40.0,18.0,30.26,NE,34,5.0,8.0,41,0.00,,,0.00,,2013-03-27 22:42:00,
2013-03-27 17:52:00,39.0,18.0,30.26,NE,43,6.0,9.0,42,0.00,,,0.00,,2013-03-27 22:52:00,
2013-03-27 18:02:00,40.0,18.0,30.26,NNE,19,5.0,9.0,40,0.00,,,0.00,,2013-03-27 23:02:00,
2013-03-27 18:12:00,40.0,18.0,30.26,NNE,19,5.0,9.0,40,0.00,,,0.00,,2013-03-27 23:12:00,
2013-03-27 18:22:00,39.0,18.0,30.26,North,9,5.0,9.0,42,0.00,,,0.00,,2013-03-27 23:22:00,
2013-03-27 18:32:00,39.0,17.0,30.26,North,10,6.0,10.0,41,0.00,,,0.00,,2013-03-27 23:32:00,
2013-03-27 18:42:00,39.0,17.0,30.26,North,10,6.0,10.0,41,0.00,,,0.00,,2013-03-27 23:42:00,
2013-03-27 18:52:00,39.0,17.0,30.26,North,349,6.0,9.0,40,0.00,,,0.00,,2013-03-27 23:52:00,
2013-03-27 19:02:00,39.0,17.0,30.26,North,354,5.0,9.0,41,0.00,,,0.00,,2013-03-28 00:02:00,
2013-03-27 19:12:00,39.0,17.0,30.26,North,354,5.0,9.0,41,0.00,,,0.00,,2013-03-28 00:12:00,
2013-03-27 19:22:00,38.0,17.0,30.26,NNW,337,4.0,6.0,42,0.00,,,0.00,,2013-03-28 00:22:00,
2013-03-27 19:32:00,37.0,17.0,30.26,NNW,336,3.0,7.0,43,0.00,,,0.00,,2013-03-28 00:32:00,
2013-03-27 19:43:00,37.0,17.0,30.26,NNW,336,3.0,7.0,43,0.00,,,0.00,,2013-03-28 00:43:00,
2013-03-27 19:52:00,37.0,18.0,30.26,NW,322,2.0,4.0,45,0.00,,,0.00,,2013-03-28 00:52:00,
2013-03-27 20:02:00,36.0,17.0,30.26,NW,323,3.0,5.0,46,0.00,,,0.00,,2013-03-28 01:02:00,
2013-03-27 20:12:00,36.0,17.0,30.26,NW,323,3.0,5.0,46,0.00,,,0.00,,2013-03-28 01:12:00,
2013-03-27 20:22:00,35.0,17.0,30.26,NW,319,2.0,4.0,47,0.00,,,0.00,,2013-03-28 01:22:00,
2013-03-27 20:32:00,34.0,16.0,30.26,NW,319,2.0,3.0,48,0.00,,,0.00,,2013-03-28 01:32:00,
2013-03-27 20:42:00,34.0,16.0,30.26,NW,319,2.0,3.0,48,0.00,,,0.00,,2013-03-28 01:42:00,
2013-03-27 20:52:00,34.0,17.0,30.26,WNW,292,3.0,4.0,50,0.00,,,0.00,,2013-03-28 01:52:00,
2013-03-27 21:02:00,33.0,17.0,30.26,WNW,288,3.0,4.0,52,0.00,,,0.00,,2013-03-28 02:02:00,
2013-03-27 21:12:00,33.0,17.0,30.26,WNW,288,3.0,4.0,52,0.00,,,0.00,,2013-03-28 02:12:00,
2013-03-27 21:22:00,32.0,17.0,30.26,WNW,286,4.0,5.0,53,0.00,,,0.00,,2013-03-28 02:22:00,
2013-03-27 21:32:00,32.0,17.0,30.27,WNW,282,4.0,5.0,53,0.00,,,0.00,,2013-03-28 02:32:00,
2013-03-27 21:42:00,32.0,17.0,30.27,WNW,282,4.0,5.0,53,0.00,,,0.00,,2013-03-28 02:42:00,
2013-03-27 21:52:00,32.0,17.0,30.27,WNW,282,4.0,5.0,53,0.00,,,0.00,,2013-03-28 02:52:00,
2013-03-27 22:02:00,31.0,17.0,30.27,WNW,292,4.0,6.0,56,0.00,,,0.00,,2013-03-28 03:02:00,
2013-03-27 22:12:00,31.0,17.0,30.27,WNW,292,4.0,6.0,56,0.00,,,0.00,,2013-03-28 03:12:00,
2013-03-27 22:22:00,31.0,18.0,30.28,WNW,288,4.0,6.0,57,0.00,,,0.00,,2013-03-28 03:22:00,
2013-03-27 22:33:00,31.0,17.0,30.28,WNW,291,4.0,6.0,56,0.00,,,0.00,,2013-03-28 03:33:00,
2013-03-27 22:43:00,31.0,17.0,30.28,WNW,291,4.0,6.0,56,0.00,,,0.00,,2013-03-28 03:43:00,
2013-03-27 22:52:00,31.0,18.0,30.28,WNW,291,4.0,7.0,57,0.00,,,0.00,,2013-03-28 03:52:00,
2013-03-27 23:02:00,31.0,18.0,30.28,WNW,287,4.0,6.0,57,0.00,,,0.00,,2013-03-28 04:02:00,
2013-03-27 23:12:00,31.0,18.0,30.28,WNW,287,4.0,6.0,57,0.00,,,0.00,,2013-03-28 04:12:00,
2013-03-27 23:22:00,30.0,17.0,30.28,WNW,293,4.0,7.0,58,0.00,,,0.00,,2013-03-28 04:22:00,
2013-03-27 23:32:00,30.0,17.0,30.28,WNW,291,4.0,6.0,58,0.00,,,0.00,,2013-03-28 04:32:00,
2013-03-27 23:42:00,30.0,17.0,30.28,WNW,291,4.0,6.0,58,0.00,,,0.00,,2013-03-28 04:42:00,
2013-03-27 23:52:00,30.0,17.0,30.28,WNW,291,4.0,6.0,58,0.00,,,0.00,,2013-03-28 04:52:00,